GSAT 0209

Last updated on May 29, 2016, 1:44 a.m. UTC

1 41174U 15079A   16149.57526485  .00000049  00000-0  00000+0 0  9994
2 41174  54.9442 202.3774 0005506 272.4685  66.1105  1.70474222  2765
UTC
Height (km)
Latitude
Longitude
Inclination
Orbital Period
UTC large
Height (km)
Speed (km/s)
/
Latitude / Longitude
Inclination (degrees)
Orbital Period (minutes)
Azimuth
Elevation
Range (km)
Doppler Factor
iOS Compass Heading
iOS Angle

Next 30 passes for location: Hong Kong

Rise time Rise Azimuth (degrees) Set time Set Azimuth (degrees) Duration Max altitude (degrees)

No matching passes for this satellites